This is the latest recevied weather packets stored in our database for station/object KQ4PPF. If no packets are shown the sender has not sent any weather packets the latest 10 day(s).
| Time | Temp. | Humidity | Pressure | Rain* | Wind** | Luminosity | Snow |
|---|---|---|---|---|---|---|---|
| 1777903009 | 17.22° C | 59% | 1017.5 hPa | 0 mm | - | 70 W/m² | - |
| 1777902705 | 16.11° C | 64% | 1017.4 hPa | 0 mm | - | 88 W/m² | - |
| 1777902403 | 16.11° C | 61% | 1017.5 hPa | 0 mm | - | 58 W/m² | - |
| 1777902099 | 15.56° C | 64% | 1017.5 hPa | 0 mm | - | 66 W/m² | - |
| 1777901798 | 15° C | 67% | 1017.8 hPa | 0 mm | - | 92 W/m² | - |
| 1777901495 | 15° C | 66% | 1017.6 hPa | 0 mm | - | 69 W/m² | - |
| 1777901192 | 14.44° C | 66% | 1017.5 hPa | 0 mm | - | 75 W/m² | - |
| 1777900890 | 14.44° C | 67% | 1017.6 hPa | 0 mm | - | 77 W/m² | - |
| 1777900587 | 14.44° C | 68% | 1017.5 hPa | 0 mm | - | 191 W/m² | - |
| 1777900284 | 13.89° C | 70% | 1017.6 hPa | 0 mm | - | 54 W/m² | - |
| 1777899980 | 13.89° C | 69% | 1017.8 hPa | 0 mm | - | 60 W/m² | - |
| 1777899677 | 13.89° C | 70% | 1017.6 hPa | 0 mm | - | 65 W/m² | - |
| 1777899375 | 13.89° C | 74% | 1017.8 hPa | 0 mm | - | 67 W/m² | - |
| 1777899072 | 12.78° C | 77% | 1017.7 hPa | 0 mm | - | 89 W/m² | - |
| 1777898769 | 12.22° C | 79% | 1017.5 hPa | 0 mm | - | 91 W/m² | - |
| 1777898467 | 12.22° C | 76% | 1017.5 hPa | 0 mm | - | 60 W/m² | - |
| 1777898164 | 12.22° C | 79% | 1017.6 hPa | 0 mm | - | 39 W/m² | - |
| 1777897861 | 12.22° C | 79% | 1017.6 hPa | 0 mm | - | 37 W/m² | - |
| 1777897557 | 12.22° C | 77% | 1017.3 hPa | 0 mm | - | 54 W/m² | - |
| 1777897253 | 11.67° C | 76% | 1017.7 hPa | 0 mm | - | 35 W/m² | - |
| 1777896949 | 11.67° C | 77% | 1017.5 hPa | 0 mm | - | 63 W/m² | - |
| 1777896646 | 12.22° C | 80% | 1017.5 hPa | 0 mm | - | 72 W/m² | - |
| 1777896343 | 11.67° C | 78% | 1017.1 hPa | 0 mm | - | 69 W/m² | - |
| 1777896041 | 11.11° C | 81% | 1017.4 hPa | 0 mm | - | 66 W/m² | - |
| 1777895739 | 10.56° C | 83% | 1017.5 hPa | 0 mm | - | 51 W/m² | - |
* Rain latest hour (hover to see other rain measurements)
** Current wind speed in m/s (hover to see current wind gust speed)